Flag for South Africa Weather past 2 weeks in Stellenbosch, South Africa

Now
63 °F

Clear.


Feels Like: 63 °F
Forecast: 54 / 88 °F
Wind: 7 mph from Southwest

Location: Cape Town International Airport

Current Time: Oct 26, 2014 at 2:26:59 AM

Latest Report: Oct 26, 2014 at 1:00 AM


Visibility: 10 mi

Pressure: 30.01 "Hg

Humidity: 64%

Dew point: 50 °F

Location of StellenboschLocation

Historic Weather in Stellenbosch — Graph

°F

Stellenbosch temperature yesterday

Maximum temperature yesterday: 82 °F (at 1:00 PM)
Minimum temperature yesterday: 61 °F (at 11:00 PM)
Average temperature yesterday: 71 °F

Past Weeks' High & Low Weather Summary

 TemperatureHumidityPressure
High82 °F (Oct 13, 3:00 PM)94% (Oct 12, 5:00 AM)30.27 "Hg (Oct 12, 5:00 AM)
Low46 °F (Oct 17, 7:00 AM)24% (Oct 18, 11:00 AM)29.86 "Hg (Oct 14, 3:00 AM)
Average66 °F66%30.03 "Hg
* Reported Oct 11 1:00 AM — Oct 26 1:00 AM, Stellenbosch, Weather by CustomWeather, © 2014

Note: Actual official high and low records may vary slightly from our data, if they occured in-between our weather recording intervals... More about our weather records

Advertising

Stellenbosch weather history for previous 24 hours

 ConditionsComfort  
Time TempWeatherWind HumidityBarometerVisibility
1:00 AM
Oct 26
63 °FClear.7 mph64%30.01 "Hg10 mi
12:00 AM63 °FClear.7 mph64%30.04 "Hg10 mi
11:00 PM
Oct 25
61 °FClear.6 mph68%30.04 "Hg10 mi
10:00 PM64 °FClear.12 mph64%30.04 "Hg10 mi
9:00 PM66 °FClear.15 mph60%30.04 "Hg10 mi
8:00 PM66 °FPassing clouds.16 mph64%30.01 "HgN/A
7:00 PM70 °FPassing clouds.17 mph57%30.01 "HgN/A
6:00 PM73 °FPassing clouds.21 mph53%29.98 "HgN/A
5:00 PM77 °FPassing clouds.24 mph51%30.01 "HgN/A
4:00 PM79 °FPassing clouds.28 mph51%29.98 "HgN/A
3:00 PM81 °FPassing clouds.25 mph48%29.98 "HgN/A
2:00 PM82 °FPassing clouds.23 mph45%30.01 "HgN/A
1:00 PM82 °FPassing clouds.20 mph40%30.01 "HgN/A
12:00 PM81 °FPassing clouds.13 mph39%30.04 "HgN/A
11:00 AM79 °FPassing clouds.10 mph39%30.04 "HgN/A
10:00 AM77 °FPassing clouds.17 mph51%30.04 "HgN/A
9:00 AM73 °FPassing clouds.17 mph53%30.04 "HgN/A
8:00 AM70 °FPassing clouds.18 mph60%30.04 "HgN/A
7:00 AM66 °FPassing clouds.18 mph64%30.04 "HgN/A
6:00 AM64 °FPassing clouds.17 mph68%30.01 "HgN/A
5:00 AM64 °FSunny.18 mph68%30.01 "Hg10 mi
4:00 AM64 °FClear.18 mph68%30.01 "Hg10 mi
3:00 AM64 °FClear.18 mph68%30.01 "Hg10 mi
2:00 AM66 °FClear.20 mph60%30.01 "Hg10 mi
Weather by CustomWeather, © 2014

See weather overviewHow to use our weather pages